"Pseudo-MPEC" for SWC0444

Created 2023 Nov 30 7:22:07 UT using Find_Orb

Click here for an explanation of pseudo-MPECs

 
 Astrometry: 
     SWC0444*KB2023 11 10KNUn*9*3E/1BQ6Y/?Qx^AylAstrometrywt'SapM*vV_j`SNMx]8Y05
     SWC0444 KB2023 11 10u4NTwG_u+'NRXI3e0^redacted;m;ZIT$clickc-,7`hereiO5#XY05
     SWC0444 KB2023 11 10iYOOe0$qBM^.]BURV$for-explanationZAnf2T/bift3@SprLtCY05

Station data:
(Y05) SONEAR Wykrota-CEAMIG, Serra da Piedade  (S19.824251 W43.690000)
   Brazil.  Observer C. Jacques. 0.45-m f/2.9 reflector + CMO.

Orbital elements:  SWC0444
   Perihelion 2024 Jan 24.62537 +/- 40.8 TT = 15:00:31 (JD 2460334.12537)
Epoch 2023 Nov 10.0 TT = JDT 2460258.5   Earth MOID: 0.0082      AutoNEOCP
M 332.78473798 +/- 22               (J2000 ecliptic)
n   0.35986948 +/- 0.306            Peri.   39.15863 +/- 100
a   1.95751920 +/- 1.11             Node    95.52061 +/- 52
e   0.5424631 +/- 0.251             Incl.   15.89430 +/- 8
P   2.74                   H 21.77  G  0.15   U 11.9  SR
q 0.89563714 +/- 0.357    Q 3.01940126 +/- 56.2
From 3 observations 2023 Nov. 10 (40.6 min); mean residual 0".33
Residuals in arcseconds: 
231110 Y05  .09+  .31-    231110 Y05  .17-  .63+    231110 Y05  .09+  .32-    

Ephemerides (geocentric):
Date (UTC) HH   RA             Dec           delta  r     elong  mag " sig PA
---- --------  ------------   ------------  ------ ------ -----  --- --------
2023 11 30 07  05 12 24.079   -22 14 41.81  .20796 1.1419 134.6 20.2  67d  99
2023 11 30 08  05 12 25.804   -22 15 25.69  .20761 1.1416 134.5 20.2  67d  99
2023 11 30 09  05 12 27.531   -22 16 09.60  .20725 1.1412 134.5 20.2  67d  99
2023 11 30 10  05 12 29.262   -22 16 53.54  .20690 1.1409 134.5 20.2  67d  99
2023 11 30 11  05 12 30.997   -22 17 37.49  .20654 1.1406 134.5 20.2  67d  99
2023 11 30 12  05 12 32.735   -22 18 21.47  .20619 1.1403 134.5 20.2  67d  99
2023 11 30 13  05 12 34.477   -22 19 05.48  .20584 1.1400 134.5 20.2  67d  99
2023 11 30 14  05 12 36.222   -22 19 49.51  .20548 1.1397 134.5 20.2  67d  99
2023 11 30 15  05 12 37.971   -22 20 33.56  .20513 1.1394 134.5 20.1  67d  99
2023 11 30 16  05 12 39.724   -22 21 17.64  .20477 1.1391 134.5 20.1  67d  99
2023 11 30 17  05 12 41.480   -22 22 01.74  .20442 1.1388 134.5 20.1  67d  99
2023 11 30 18  05 12 43.240   -22 22 45.87  .20407 1.1385 134.5 20.1  67d  99
2023 11 30 19  05 12 45.003   -22 23 30.02  .20371 1.1382 134.5 20.1  67d  99
2023 11 30 20  05 12 46.770   -22 24 14.20  .20336 1.1379 134.4 20.1  67d  99
2023 11 30 21  05 12 48.541   -22 24 58.41  .20301 1.1376 134.4 20.1  67d  99
2023 11 30 22  05 12 50.316   -22 25 42.64  .20265 1.1373 134.4 20.1  67d  99
2023 11 30 23  05 12 52.095   -22 26 26.90  .20230 1.1370 134.4 20.1  67d  99
2023 12 01 00  05 12 53.877   -22 27 11.18  .20195 1.1367 134.4 20.1  68d  99
2023 12 01 01  05 12 55.664   -22 27 55.49  .20159 1.1364 134.4 20.1  68d  99
2023 12 01 02  05 12 57.454   -22 28 39.83  .20124 1.1361 134.4 20.1  68d  99
2023 12 01 03  05 12 59.248   -22 29 24.19  .20089 1.1358 134.4 20.1  68d  99
2023 12 01 04  05 13 01.047   -22 30 08.58  .20054 1.1355 134.4 20.1  68d  99
2023 12 01 05  05 13 02.849   -22 30 53.00  .20018 1.1352 134.4 20.1  68d  99
2023 12 01 06  05 13 04.655   -22 31 37.45  .19983 1.1349 134.3 20.1  68d  99
2023 12 01 07  05 13 06.466   -22 32 21.93  .19948 1.1346 134.3 20.1  68d  99
2023 12 01 08  05 13 08.280   -22 33 06.43  .19913 1.1343 134.3 20.1  68d  99
2023 12 01 09  05 13 10.099   -22 33 50.96  .19877 1.1340 134.3 20.1  68d  99
2023 12 01 10  05 13 11.922   -22 34 35.52  .19842 1.1337 134.3 20.1  68d  99
2023 12 01 11  05 13 13.748   -22 35 20.11  .19807 1.1334 134.3 20.1  68d  99
2023 12 01 12  05 13 15.580   -22 36 04.73  .19772 1.1330 134.3 20.1  68d  99
2023 12 01 13  05 13 17.415   -22 36 49.38  .19736 1.1327 134.3 20.1  68d  99
2023 12 01 14  05 13 19.255   -22 37 34.06  .19701 1.1324 134.3 20.1  68d  99
2023 12 01 15  05 13 21.099   -22 38 18.77  .19666 1.1321 134.3 20.1  68d  99
2023 12 01 16  05 13 22.947   -22 39 03.51  .19631 1.1318 134.3 20.1  68d  99
2023 12 01 17  05 13 24.800   -22 39 48.28  .19596 1.1315 134.2 20.0  68d  99
2023 12 01 18  05 13 26.658   -22 40 33.08  .19560 1.1312 134.2 20.0  68d  99
2023 12 01 19  05 13 28.519   -22 41 17.91  .19525 1.1309 134.2 20.0  68d  99
2023 12 01 20  05 13 30.386   -22 42 02.78  .19490 1.1306 134.2 20.0  68d  99
2023 12 01 21  05 13 32.256   -22 42 47.67  .19455 1.1303 134.2 20.0  68d  99
2023 12 01 22  05 13 34.132   -22 43 32.60  .19420 1.1300 134.2 20.0  68d  99
2023 12 01 23  05 13 36.011   -22 44 17.56  .19385 1.1297 134.2 20.0  68d  99
2023 12 02 00  05 13 37.896   -22 45 02.55  .19349 1.1294 134.2 20.0  68d  99
2023 12 02 01  05 13 39.785   -22 45 47.58  .19314 1.1291 134.2 20.0  68d  99
2023 12 02 02  05 13 41.679   -22 46 32.64  .19279 1.1288 134.2 20.0  68d  99
2023 12 02 03  05 13 43.578   -22 47 17.73  .19244 1.1285 134.1 20.0  68d  99
2023 12 02 04  05 13 45.481   -22 48 02.85  .19209 1.1282 134.1 20.0  68d  99
2023 12 02 05  05 13 47.389   -22 48 48.01  .19174 1.1279 134.1 20.0  68d  99
2023 12 02 06  05 13 49.303   -22 49 33.20  .19139 1.1276 134.1 20.0  68d  99